Weather History for VTBD - November, 2012

Change the Weather History Date:

Wednesday, November 21, 2012

  Actual Average Record
Temperature  
Mean Temperature 86 °F -  
Max Temperature 93 °F 87 °F 95 °F (1996)
Min Temperature 78 °F 72 °F 64 °F (2001)
Cooling Degree Days 20    
Growing Degree Days 36 (Base 50)    
Moisture  
Dew Point 76 °F    
Average Humidity 74    
Maximum Humidity 94    
Minimum Humidity 45    
Precipitation  
Precipitation 0.08 in 0.03 in - ()
Sea Level Pressure  
Sea Level Pressure 29.84 in    
Wind  
Wind Speed 4 mph ()    
Max Wind Speed 9 mph    
Max Gust Speed -    
Visibility 5.4 miles    
Events Rain    
Averages and records for this station are not official NWS values.
T = Trace of Precipitation, MM = Missing Value Source: Averaged Metar Reports

Daily Weather History Graph

Daily Weather History Graph

Search for Another Location

Airport or City:

Trip Planner

Search our weather history database for the weather conditions in past years. The results will help you decide how hot, cold, wet, or windy it might be!

Date:

Astronomy

Nov. 21, 2012 Rise Set
Actual Time 6:20 AM ICT 5:46 PM ICT
Civil Twilight 5:57 AM ICT 6:09 PM ICT
Nautical Twilight 5:31 AM ICT 6:35 PM ICT
Astronomical Twilight 5:05 AM ICT 7:01 PM ICT
Moon 12:47 PM ICT (11/21) 12:12 AM ICT (11/21)
Length of Visible Light 12h 11m
Length of Day
11h 26m
First Quarter, 56% of the Moon is Illuminated
Nov 21
First Quarter
Nov 28
Full
Dec 6
Last Quarter
Dec 13
New
Dec 20
First Quarter

Hourly Weather History & Observations

Time (ICT) Temp. Heat Index Dew Point Humidity Pressure Visibility Wind Dir Wind Speed Gust Speed Precip Events Conditions
12:00 AM 80.6 °F 87.1 °F 77.0 °F 89% 29.86 in 5.0 mi SW 4.6 mph - N/A Rain Light Rain
12:30 AM 80.6 °F 87.1 °F 77.0 °F 89% 29.86 in 5.0 mi SSW 4.6 mph - N/A   Mostly Cloudy
1:00 AM 80 °F - 77 °F 87% 29.87 in 5 mi WSW 4.6 mph - - Rain Light Rain
1:00 AM 80.6 °F 87.1 °F 77.0 °F 89% 29.86 in 5.0 mi WSW 4.6 mph - N/A   Mostly Cloudy
1:30 AM 80.6 °F 87.1 °F 77.0 °F 89% 29.86 in 5.0 mi SSW 4.6 mph - N/A   Mostly Cloudy
2:00 AM 78.8 °F - 75.2 °F 89% 29.86 in 5.6 mi WSW 4.6 mph - N/A   Mostly Cloudy
2:30 AM 78.8 °F - 77.0 °F 94% 29.86 in 5.0 mi WNW 3.5 mph - N/A   Mostly Cloudy
3:00 AM 78.8 °F - 77.0 °F 94% 29.83 in 5.0 mi NNW 4.6 mph - N/A   Mostly Cloudy
3:30 AM 78.8 °F - 77.0 °F 94% 29.83 in 5.0 mi Calm Calm - N/A   Mostly Cloudy
4:00 AM 78.8 °F - 75.2 °F 89% 29.83 in 4.3 mi Calm Calm - N/A   Mostly Cloudy
4:30 AM 78.8 °F - 75.2 °F 89% 29.83 in 4.3 mi North 4.6 mph - N/A   Mostly Cloudy
5:00 AM 78.8 °F - 75.2 °F 89% 29.83 in 4.3 mi North 4.6 mph - N/A   Mostly Cloudy
5:30 AM 78.8 °F - 75.2 °F 89% 29.83 in 3.7 mi Calm Calm - N/A   Mostly Cloudy
6:00 AM 78.8 °F - 77.0 °F 94% 29.83 in 3.7 mi NNE 4.6 mph - N/A   Mostly Cloudy
6:30 AM 80.6 °F 87.1 °F 77.0 °F 89% 29.86 in 3.7 mi ESE 3.5 mph - N/A   Mostly Cloudy
7:00 AM 80 °F - 78 °F 91% 29.88 in 3 mi East 3.5 mph - -   Mist
7:00 AM 80.6 °F 87.1 °F 77.0 °F 89% 29.86 in 3.1 mi East 3.5 mph - N/A   Mostly Cloudy
7:30 AM 80.6 °F 87.1 °F 77.0 °F 89% 29.89 in 3.7 mi Calm Calm - N/A   Mostly Cloudy
8:00 AM 80.6 °F 87.1 °F 77.0 °F 89% 29.89 in 4.3 mi ESE 3.5 mph - N/A   Mostly Cloudy
8:30 AM 80.6 °F 87.1 °F 77.0 °F 89% 29.89 in 5.0 mi NNW 3.5 mph - N/A   Mostly Cloudy
9:00 AM 84.2 °F 94.1 °F 77.0 °F 79% 29.92 in 5.0 mi West 3.5 mph - N/A   Mostly Cloudy
9:30 AM 86.0 °F 96.9 °F 77.0 °F 74% 29.92 in 5.0 mi South 4.6 mph - N/A   Mostly Cloudy
10:00 AM 87.8 °F 99.7 °F 77.0 °F 70% 29.92 in 5.6 mi West 3.5 mph - N/A   Mostly Cloudy
10:30 AM 87.8 °F 99.7 °F 77.0 °F 70% 29.89 in 5.6 mi East 3.5 mph - N/A   Mostly Cloudy
11:00 AM 89.6 °F 102.2 °F 77.0 °F 66% 29.89 in 5.6 mi West 9.2 mph - N/A   Mostly Cloudy
11:30 AM 91.4 °F 105.1 °F 77.0 °F 63% 29.89 in 5.6 mi Calm Calm - N/A   Mostly Cloudy
12:00 PM 91.4 °F 105.1 °F 77.0 °F 63% 29.86 in 5.6 mi ESE 6.9 mph - N/A   Mostly Cloudy
12:30 PM 93.2 °F 105.0 °F 75.2 °F 56% 29.83 in 6.2 mi ESE 9.2 mph - N/A   Mostly Cloudy
1:00 PM 94 °F - 75 °F 45% 29.84 in 6 mi ESE 5.8 mph - -   Partly Cloudy
1:00 PM 93.2 °F 105.0 °F 75.2 °F 56% 29.83 in 6.2 mi ESE 5.8 mph - N/A   Mostly Cloudy
1:30 PM 93.2 °F 105.0 °F 75.2 °F 56% 29.83 in 6.2 mi SW 8.1 mph - N/A   Mostly Cloudy
2:00 PM 91.4 °F 98.4 °F 71.6 °F 52% 29.80 in 6.2 mi SSE 8.1 mph - N/A   Mostly Cloudy
2:30 PM 93.2 °F 100.5 °F 71.6 °F 49% 29.77 in 6.2 mi ESE 6.9 mph - N/A   Mostly Cloudy
3:00 PM 93.2 °F 100.5 °F 71.6 °F 49% 29.77 in 6.2 mi SSW 3.5 mph - N/A   Mostly Cloudy
3:30 PM 91.4 °F 98.4 °F 71.6 °F 52% 29.77 in 6.2 mi East 3.5 mph - N/A   Mostly Cloudy
4:00 PM 91.4 °F 102.5 °F 75.2 °F 59% 29.77 in 6.2 mi West 8.1 mph - N/A   Mostly Cloudy
4:30 PM 91.4 °F 102.5 °F 75.2 °F 59% 29.77 in 6.2 mi West 5.8 mph - N/A   Mostly Cloudy
5:00 PM 91.4 °F 102.5 °F 75.2 °F 59% 29.77 in 6.2 mi WSW 3.5 mph - N/A   Mostly Cloudy
5:30 PM 89.6 °F 98.2 °F 73.4 °F 59% 29.77 in 6.2 mi West 2.3 mph - N/A   Mostly Cloudy
6:00 PM 87.8 °F 97.6 °F 75.2 °F 66% 29.80 in 5.6 mi South 6.9 mph - N/A   Mostly Cloudy
6:30 PM 87.8 °F 95.6 °F 73.4 °F 62% 29.80 in 5.6 mi SSW 5.8 mph - N/A   Mostly Cloudy
7:00 PM 87 °F - 75 °F 60% 29.83 in 6 mi WSW 8.1 mph - -   Partly Cloudy
7:00 PM 87.8 °F 97.6 °F 75.2 °F 66% 29.83 in 6.2 mi WSW 8.1 mph - N/A   Mostly Cloudy
7:30 PM 86.0 °F 95.1 °F 75.2 °F 70% 29.83 in 6.2 mi West 5.8 mph - N/A   Mostly Cloudy
8:00 PM 86.0 °F 95.1 °F 75.2 °F 70% 29.86 in 6.2 mi South 5.8 mph - N/A   Mostly Cloudy
8:30 PM 86.0 °F 95.1 °F 75.2 °F 70% 29.86 in 6.2 mi WSW 5.8 mph - N/A   Mostly Cloudy
9:00 PM 84.2 °F 92.3 °F 75.2 °F 74% 29.86 in 6.2 mi SSW 2.3 mph - N/A   Mostly Cloudy
9:30 PM 84.2 °F 92.3 °F 75.2 °F 74% 29.86 in 6.2 mi SSW 3.5 mph - N/A   Mostly Cloudy
10:00 PM 84.2 °F 92.3 °F 75.2 °F 74% 29.86 in 6.2 mi WNW 5.8 mph - N/A   Mostly Cloudy
10:30 PM 84.2 °F 92.3 °F 75.2 °F 74% 29.86 in 6.2 mi West 3.5 mph - N/A   Mostly Cloudy
11:00 PM 84.2 °F 92.3 °F 75.2 °F 74% 29.86 in 6.2 mi West 3.5 mph - N/A   Mostly Cloudy
11:30 PM 84.2 °F 92.3 °F 75.2 °F 74% 29.83 in 6.2 mi SW 4.6 mph - N/A   Mostly Cloudy